EHI
0 0 0 0 0 0 0 0 0 0 0 0 0 0 0 0 0 0 0 0 0 0 0 0 0 0 0 0 0 0 0 0 0 0 0 0 0 0 0 0 0 0 0 0
0 0 0 0 0 0 0 0 0 0 0 0 0 0 0 0 0 0 0 0 0 0 0 0 0 0 0 0 0 0 0 0 0 0 0 0 0 0 0 0 0 0 0 0
0 0 0 0 0 0 0 0 0 0 0 0 0 0 0 0 0 0 0 0 0 0 0 0 0 0 0 0 0 0 0 0 0 0 0 0 0 0 0 0 0 0 0 0
0 0 0 0 0 0 0 0 0 0 0 0 0 0 0 0 0 0 0 0 0 0 0 0 0 0 0 0 0 0 0 0 0 0 0 0 0 0 0 0 0 0 0 0
0 0 0 0 0 0 0 0 0 0 0 0 0 0 0 0 0 0 0 0 0 0 0 0 0 0 0 0 0 0 0 0 0 0 0 0 0 0 0 0 0 0 0 0
0 0 0 0 0 0 0 0 0 0 0 0 0 0 0 0 0 0 0 0 0 0 0 0 0 0 0 0 0 0 0 0 0 0 0 0 0 0 0 0 0 0 0 0
0 0 0 0 0 0 0 0 0 0 0 0 0 0 0 0 0 0 0 0 0 0 0 0 0 0 0 0 0 0 0 0 0 0 0 0 0 0 0 0 0 0 0 0
0 0 0 0 0 0 0 0 0 0 0 0 0 0 0 0 0 0 0 0 0 0 0 0 0 0 0 0 0 0 0 0 0 0 0 0 0 0 0 0 0 0 0 0
0 0 0 0 0 0 0 0 0 0 0 0 0 0 0 0 0 0 0 0 0 0 0 0 0 0 0 0 0 0 0 0 0 0 0 0 0 0 0 0 0 0 0 0
0 0 0 0 0 0 0 0 0 0 0 0 0 0 0 0 0 0 0 0 0 0 0 0 0 0 0 0 0 0 0 0 0 0 0 0 0 0 0 0 0 0 0 0
0 0 0 0 0 0 0 0 0 0 0 0 0 0 0 0 0 0 0 0 0 0 0 0 0 0 0 0 0 0 0 0 0 0 0 0 0 0 0 0 0 0 0 0
0 0 0 0 0 0 0 0 0 0 0 0 0 0 0 0 0 0 0 0 0 0 0 0 0 0 0 0 0 0 0 0 0 0 0 0 0 0 0 0 0 0 0 0
0 0 0 0 0 0 0 0 0 0 0 0 0 0 0 0 0 0 0 0 0 0 0 0 0 0 0 0 0 0 0 0 0 0 0 0 0 0 0 0 0 0 0 0
0 0 0 0 0 0 0 0 0 0 0 0 0 0 0 0 0 0 0 0 0 0 0 0 0 0 0 0 0 0 0 0 0 0 0 0 0 0 0 0 0 0 0 0
0 0 0 0 0 0 0 0 0 0 0 0 0 0 0 0 0 0 0 0 0 0 0 0 0 0 0 0 0 0 0 0 0 0 0 0 0 0 0 0 0 0 0 0
0 0 0 0 0 0 0 0 0 0 0 0 0 0 0 0 0 0 0 0 0 0 0 0 0 0 0 0 0 0 0 0 0 0 0 0 0 0 0 0 0 0 0 0
0 0 0 0 0 0 0 0 0 0 0 0 0 0 0 0 0 0 0 0 0 0 0 0 0 0 0 0 0 0 0 0 0 0 0 0 0 0 0 0 0 0 0 0
0 0 0 0 0 0 0 0 0 0 0 0 0 0 0 0 0 0 0 0 0 0 0 0 0 0 0 0 0 0 0 0 0 0 0 0 0 0 0 0 0 0 0 0
0 0 0 0 0 0 0 0 0 0 0 0 0 0 0 0 0 0 0 0 0 0 0 0 0 0 0 0 0 0 0 0 0 0 0 0 0 0 0 0 0 0 0 0
0 0 0 0 0 0 0 0 0 0 0 0 0 0 0 0 0 0 0 0 0 0 0 0 0 0 0 0 0 0 0 0 0 0 0 0 0 0 0 0 0 0 0 0
0 0 0 0 0 0 0 0 0 0 0 0 0 0 0 0 0 0 0 0 0 0 0 0 0 0 0 0 0 0 0 0 0 0 0 0 0 0 0 0 0 0 0 0
0 0 0 0 0 0 0 0 0 0 0 0 0 0 0 0 0 0 0 0 0 0 0 0 0 0 0 0 0 0 0 0 0 0 0 0 0 0 0 0 0 0 0 0
0 0 0 0 0 0 0 0 0 0 0 0 0 0 0 0 0 0 0 0 0 0 0 0 0 0 0 0 0 0 0 0 0 0 0 0 0 0 0 0 0 0 0 0
0 0 0 0 0 0 0 0 0 0 0 0 0 0 0 0 0 0 0 0 0 0 0 0 0 0 0 0 0 0 0 0 0 0 0 0 0 0 0 0 0 0 0 0
0 0 0 0 0 0 0 0 0 0 0 0 0 0 0 0 0 0 0 0 0 0 0 0 0 0 0 0 0 0 0 0 0 0 0 0 0 0 0 0 0 0 0 0
0 0 0 0 0 0 0 0 0 0 0 0 0 0 0 0 0 0 0 0 0 0 0 0 0 0 0 0 0 0 0 0 0 0 0 0 0 0 0 0 0 0 0 0
0 0 0 0 0 0 0 0 0 0 0 0 0 0 0 0 0 0 0 0 0 0 0 0 0 0 0 0 0 0 0 0 0 0 0 0 0 0 0 0 0 0 0 0
Wind_Speed
8 6 5 6 8 9 11 11 10 9 8 8 5 5 5 4 4 4 4 4 3 3 3 3 2 1 1 1 1 2 2 3 3 3 3 3 4 4 4 4 4 4 4 4
6 5 5 8 9 10 12 11 12 11 11 5 4 4 4 4 3 4 4 5 4 4 3 3 2 2 1 0 0 1 2 2 2 2 3 3 4 4 4 3 3 4 4 4
5 3 5 9 9 10 8 7 8 10 7 3 4 5 5 4 4 5 5 5 4 4 3 3 2 2 1 1 1 2 2 2 2 2 3 3 3 4 4 4 3 3 3 4
3 3 8 2 1 5 7 7 8 7 5 5 6 6 5 4 3 5 5 5 4 4 3 3 2 1 1 1 1 2 2 2 2 2 2 3 3 3 3 3 3 3 3 3
3 5 8 3 2 3 5 7 6 7 6 4 3 4 3 1 3 4 4 4 4 3 3 2 1 1 1 1 1 1 1 1 1 2 2 2 3 3 3 3 3 3 3 3
4 5 7 2 1 1 3 6 3 5 5 3 2 4 2 2 4 4 4 3 2 2 2 1 1 1 1 1 1 1 1 1 1 2 2 2 2 2 2 3 3 3 2 2
6 6 7 2 0 3 5 3 1 4 4 4 5 4 3 2 3 3 3 2 2 1 1 1 1 1 1 1 1 1 1 1 1 2 2 2 2 2 2 3 3 3 2 2
5 7 7 2 4 5 4 2 1 3 3 4 3 2 2 2 2 2 2 2 2 1 2 2 1 1 1 1 1 2 2 2 2 2 2 2 2 2 2 3 3 3 2 2
6 5 2 4 4 2 2 2 2 2 2 2 2 2 2 2 2 2 2 2 1 1 1 2 1 1 1 1 2 2 2 2 2 2 2 2 2 2 2 2 2 2 2 2
6 7 5 5 4 4 3 3 3 2 2 2 2 2 2 2 1 1 1 1 1 1 1 2 2 2 1 1 2 2 2 2 2 2 2 2 1 1 1 2 2 2 2 2
7 7 5 5 5 5 3 3 2 1 1 2 2 2 2 1 1 1 0 1 1 1 1 1 1 2 2 1 2 2 2 2 2 2 2 2 1 1 1 1 1 1 1 2
6 4 4 4 3 3 3 3 2 1 1 1 2 2 1 1 1 0 0 1 1 1 1 1 1 1 2 1 1 2 2 2 2 2 1 1 1 1 2 1 1 0 1 1
4 3 3 4 3 2 3 3 2 2 2 2 1 1 1 1 0 0 0 0 0 0 1 1 1 1 1 1 1 1 2 1 1 1 1 1 1 1 1 1 1 1 1 1
3 2 4 4 3 2 1 1 0 0 0 0 0 1 1 1 1 1 1 0 0 1 1 1 1 1 1 1 1 1 1 1 1 1 1 1 1 1 0 0 0 0 1 1
3 3 3 2 1 0 0 1 1 1 0 1 1 1 1 1 1 1 0 1 1 1 1 1 1 1 1 1 1 1 1 1 1 1 1 1 1 1 0 0 0 0 0 0
2 1 2 2 2 1 1 2 2 2 1 1 1 1 1 1 1 1 1 1 1 1 0 0 0 1 1 1 1 1 1 1 1 1 1 1 1 0 0 0 0 1 1 1
3 3 3 3 3 3 3 3 3 2 2 2 1 1 1 2 2 2 1 1 1 0 0 0 1 1 1 1 1 0 0 1 1 1 0 0 0 0 0 0 1 1 1 2
4 4 4 4 4 4 3 2 2 2 2 2 2 2 2 2 2 1 1 1 1 1 1 1 1 1 1 1 0 0 0 0 0 0 0 0 0 0 1 1 1 2 2 2
2 2 2 2 3 3 3 3 2 2 2 2 3 2 2 1 1 1 2 2 1 0 1 1 0 0 0 0 1 1 0 0 0 0 0 1 1 1 1 1 1 2 2 2
1 1 1 1 1 2 2 2 3 2 2 3 3 2 2 1 1 2 2 1 0 1 1 0 0 0 0 1 1 1 1 1 1 0 1 1 1 1 1 2 2 2 2 2
1 1 1 1 1 1 2 3 3 3 3 3 3 3 2 2 2 2 1 0 0 0 0 0 0 0 0 1 1 1 1 1 1 1 1 1 2 2 2 2 2 2 3 3
1 1 2 1 1 1 1 2 2 3 3 3 2 2 2 2 2 1 1 1 0 1 0 0 1 1 1 1 1 1 1 1 1 1 1 2 2 2 2 3 3 3 3 3
1 1 1 2 2 1 1 2 2 2 3 2 3 3 2 2 1 1 0 0 0 1 0 1 1 1 1 1 1 1 1 1 1 2 2 2 2 3 3 3 3 4 4 4
1 1 1 1 2 3 2 1 2 2 2 2 2 2 2 1 1 1 1 1 1 1 1 1 2 1 1 0 0 1 1 2 2 2 2 3 3 3 3 4 4 4 4 5
1 2 2 3 2 2 2 2 2 2 2 1 1 1 1 1 1 1 0 0 1 1 1 1 2 2 1 0 1 1 2 2 2 2 3 3 3 3 4 4 4 5 5 5
1 1 1 1 1 2 2 2 2 2 2 2 1 1 1 1 1 1 0 0 1 1 1 1 1 1 1 1 1 2 2 3 3 3 3 3 4 4 4 5 6 5 5 6
1 1 1 1 1 1 2 2 2 2 2 2 1 1 1 1 1 1 1 0 0 0 1 1 1 1 1 2 2 2 2 3 3 3 4 4 4 4 5 6 5 5 5 6
Wind_Direction
266 276 264 259 249 227 224 235 246 255 255 268 273 281 296 305 310 319 326 331 330 325 325 322 320 313 296 262 170 161 164 168 176 168 162 159 156 162 162 165 171 170 168 173
261 249 257 266 258 240 239 243 248 263 266 276 292 287 292 294 294 305 314 319 322 322 322 318 317 315 311 322 132 148 154 160 156 152 152 154 157 157 157 161 164 169 174 175
256 277 272 258 240 221 224 225 227 240 252 272 282 284 286 283 284 294 304 307 312 310 305 306 303 297 291 320 113 135 137 138 143 145 153 152 150 154 158 162 162 168 172 178
263 260 243 246 104 212 224 235 223 246 269 266 277 292 285 265 283 299 304 304 303 306 309 313 314 324 356 75 117 128 131 131 133 135 141 150 153 157 160 161 166 168 175 183
228 247 264 253 194 204 226 256 224 239 264 286 317 294 246 229 303 300 301 299 298 300 300 308 321 355 76 90 107 118 124 128 142 144 140 147 161 165 166 163 161 165 174 178
221 244 252 282 117 262 220 258 204 222 242 257 267 258 272 335 316 316 319 319 317 318 317 318 350 49 100 101 104 102 94 111 135 142 150 155 154 159 156 155 154 153 166 181
232 246 264 309 174 186 224 284 342 221 222 214 230 272 314 307 309 316 322 331 340 342 343 346 17 84 106 98 87 73 81 95 105 116 128 131 127 132 142 146 146 154 164 175
214 232 251 126 148 203 263 350 251 226 225 230 254 302 302 298 304 317 340 0 10 16 14 15 32 90 97 73 54 73 94 102 103 102 104 118 126 125 133 145 150 157 161 170
213 235 339 167 211 267 321 281 280 259 252 231 240 263 281 292 301 316 337 353 4 32 44 27 22 59 82 52 56 81 97 101 99 94 92 110 131 133 137 149 160 163 169 175
254 263 266 250 263 289 291 287 290 266 241 221 230 240 258 278 295 313 327 345 2 75 70 34 20 29 51 52 73 89 96 98 102 107 104 105 118 133 142 154 163 170 179 186
250 271 285 261 255 270 281 293 296 290 260 232 224 246 252 264 266 273 353 18 78 99 83 41 28 28 34 53 86 96 96 95 97 96 97 99 102 107 137 168 176 181 202 203
238 238 241 274 289 269 251 258 253 252 268 254 227 226 240 248 252 218 102 80 90 89 81 53 40 29 28 41 92 110 105 100 98 96 98 105 108 95 83 92 69 229 232 227
255 285 269 288 298 278 254 254 237 226 220 230 238 205 197 209 204 140 116 123 156 144 103 86 64 36 25 30 91 112 110 107 105 105 108 115 119 116 95 75 64 9 298 252
256 268 267 268 281 287 275 265 216 216 250 226 169 143 140 125 128 142 166 177 86 84 86 87 73 32 23 42 91 104 108 108 109 112 107 108 114 113 116 148 240 327 313 299
255 248 255 285 320 321 246 155 145 154 123 67 95 132 141 147 163 172 120 98 103 99 89 81 53 8 33 73 98 103 111 113 107 101 100 99 93 90 77 23 283 297 317 312
263 245 228 231 235 224 204 193 194 208 202 195 179 178 170 152 138 120 107 114 127 128 101 87 356 7 51 92 111 116 114 107 102 108 111 110 111 111 100 354 308 297 294 314
196 219 219 229 228 226 223 224 217 207 199 200 202 168 132 114 107 100 93 94 104 55 12 346 341 29 61 97 139 127 99 106 97 96 99 106 127 222 278 281 286 300 299 293
238 241 227 222 217 218 224 223 210 193 192 192 165 145 140 142 146 138 119 96 76 44 5 344 2 60 86 108 137 130 127 125 122 158 165 208 253 259 261 267 276 286 301 307
243 239 229 220 215 207 208 205 198 185 169 156 154 156 154 148 142 134 125 123 121 51 346 339 318 95 122 152 135 149 151 153 150 219 258 265 283 266 263 266 274 281 287 292
235 219 202 204 197 191 192 188 172 163 155 150 147 141 136 131 126 129 133 152 204 270 306 318 285 239 175 177 158 162 175 195 217 248 267 269 272 272 271 272 274 278 278 277
211 193 186 185 189 183 178 170 162 159 153 153 156 158 155 145 140 145 153 170 11 303 249 282 320 287 229 159 167 180 202 229 246 259 267 269 269 269 270 273 273 273 274 275
210 195 194 182 165 153 142 148 151 150 146 147 147 144 143 147 150 159 194 233 276 278 321 269 279 260 225 168 166 185 219 246 260 263 262 264 265 268 271 273 274 275 276 277
205 193 181 171 167 147 122 130 142 147 151 157 160 164 166 165 170 173 202 211 235 271 313 273 281 271 277 146 159 194 228 246 255 259 261 264 265 267 270 272 272 274 275 276
178 169 161 151 145 142 140 139 134 134 139 151 162 168 168 162 170 211 251 234 262 288 291 277 296 313 337 89 210 242 250 256 260 262 263 264 264 266 268 270 273 274 273 273
162 155 153 157 160 162 153 139 130 130 131 134 136 144 164 191 190 182 189 252 253 278 288 289 310 335 2 320 273 270 270 267 268 266 262 264 266 268 269 269 269 271 272 272
156 162 171 181 175 160 154 155 154 152 149 146 139 136 129 127 134 134 159 225 260 278 315 312 323 337 329 299 284 280 278 282 288 284 273 270 269 269 268 269 271 270 271 271
128 130 136 137 146 158 159 162 163 166 169 167 156 148 141 141 140 139 150 179 266 322 315 311 314 309 299 296 291 287 283 280 277 274 273 270 268 268 269 270 271 272 272 271